Location: Stonelick Lake State Park
(39.2170°N, 84.0850°W)
Time: 01:28:02
(UTC-04:00)

Daily predictions for brighter satellites

Satellite Brightness Start Highest point End
(mag) Time Altitude Azimuth Time Altitude Azimuth Time Altitude Azimuth
Cosmos 2237 Rocket 3.5 00:12:25 35° N 00:12:25 35° N 00:15:41 10° NNE
COSMOS 2455 4.2 00:05:52 10° NNW 00:10:05 32° NNE 00:10:05 32° NNE
CENTAUR R/B 3.2 00:23:08 10° NNW 00:30:30 67° NNE 00:30:30 67° NNE
ATLAS CENTAUR R/B 4.3 00:22:30 10° NW 00:32:29 33° NNE 00:33:12 32° NNE
Cosmos 2278 Rocket 4.1 00:46:04 10° NW 00:48:29 23° WNW 00:48:29 23° WNW
CZ-2C R/B 4.5 01:02:01 10° N 01:04:26 27° N 01:04:26 27° N
SL-16 R/B 4.0 01:21:36 27° N 01:21:36 27° N 01:24:26 10° N
Cosmos 1943 Rocket 4.3 01:30:15 10° N 01:33:00 20° NNE 01:33:00 20° NNE
Cosmos 2369 Rocket 4.0 01:52:38 10° NNW 01:55:12 27° N 01:55:12 27° N
USA 215 4.2 02:33:40 39° NW 02:33:40 39° NW 02:37:32 10° NW
ADEOS Rocket 4.4 02:36:28 10° NNE 02:39:29 29° NE 02:39:29 29° NE
Resurs 1-4 Rocket 3.9 03:01:21 10° NE 03:04:35 24° ENE 03:04:35 24° ENE
COSMOS 2406 4.4 03:14:18 38° ENE 03:14:18 38° ENE 03:18:10 10° NE
Cosmos 1943 Rocket 4.3 03:13:15 10° NNW 03:14:29 17° NW 03:14:29 17° NW
CZ-2D R/B 3.3 03:21:40 10° NNE 03:25:45 37° ENE 03:25:45 37° ENE
IRS-1D 4.4 03:33:02 10° NNE 03:37:11 45° ENE 03:37:11 45° ENE
BREEZE M DEB (TANK) 4.2 03:40:16 34° ENE 03:40:16 34° ENE 03:45:47 10° ESE
CZ-3A R/B 3.3 03:35:35 10° NW 03:50:25 - SE 03:43:25 71° WNW
Cosmos 2123 Rocket 4.0 03:45:49 10° N 03:51:28 73° NNW 03:51:28 73° NNW
Lacrosse 5 4.0 03:49:21 10° NNW 03:53:29 24° NNE 03:57:36 10° E
Cosmos 2082 Rocket 4.3 03:53:58 14° SE 03:56:07 17° E 03:59:38 10° ENE
Cosmos 1633 Rocket 4.5 03:52:14 10° N 03:55:55 34° ENE 03:55:55 34° ENE
ADEOS 3.9 03:54:28 10° NNE 03:59:25 59° E 03:59:25 59° E
Cosmos 1934 Rocket 4.3 04:00:37 52° NW 04:00:37 52° NW 04:05:44 10° N
Cosmos 1726 4.3 04:01:54 25° NNE 04:01:54 25° NNE 04:03:40 10° NNE
SL-16 R/B 2.4 04:04:43 78° W 04:04:43 78° W 04:10:51 10° NNW
USA 229 DEB 3.7 04:06:37 10° NW 04:13:44 65° WSW 04:14:06 64° SW
USA 229 3.7 04:06:44 10° NW 04:13:50 65° WSW 04:14:19 64° SW
Cosmos 1315 Rocket 4.3 04:11:22 10° N 04:13:44 33° N 04:13:44 33° N
Cosmos 1328 Rocket 4.4 04:17:08 44° E 04:17:08 44° E 04:21:16 10° NNE
Cosmos 2221 4.3 04:20:43 24° NNW 04:20:43 24° NNW 04:22:47 10° N
Cosmos 1605 Rocket 4.1 04:19:33 59° W 04:19:45 59° W 04:26:05 10° N
Meteor 2-10 4.5 04:22:32 49° SSE 04:23:56 65° E 04:29:30 10° NNE
ADEOS Rocket 4.1 04:22:33 10° NNW 04:26:26 25° WNW 04:26:26 25° WNW
Cosmos 1538 Rocket 3.9 04:26:52 77° S 04:27:17 88° ESE 04:32:41 10° NNE
Cosmos 1666 Rocket 4.1 04:27:38 10° NNW 04:31:02 50° NNW 04:31:02 50° NNW
Cosmos 2061 Rocket 4.4 04:28:51 28° SSE 04:32:14 62° E 04:38:33 10° NNE
UNKNOWN OBJECT B 3.0 04:32:13 10° NNE 04:35:51 70° N 04:35:51 70° N
BREEZE-M DEB (TANK) 3.9 04:38:34 26° NW 04:40:10 41° NNE 04:47:14 10° E
Cosmos 1933 Rocket 4.4 04:36:31 10° N 04:40:51 48° E 04:43:42 20° SSE
Hubble Space Telescope 3.2 04:44:31 12° SE 04:44:31 12° SE 04:45:02 10° SE
Cosmos 1151 Rocket 3.8 04:41:22 36° SE 04:42:39 48° E 04:46:47 10° NNE
Resurs 1-4 Rocket 2.8 04:40:49 10° N 04:45:36 36° WNW 04:45:39 36° WNW
ARIANE 5 R/B 3.0 04:41:48 10° N 04:46:43 42° WNW 04:46:57 42° WNW
NOSS 3-1 (C) 4.0 04:39:10 10° NW 04:46:54 79° WSW 04:55:21 10° SSE
Cosmos 1833 Rocket 3.4 04:45:25 26° SSE 04:48:18 48° ESE 04:53:42 10° NE
CZ-2D R/B 3.4 04:48:14 10° N 04:52:00 64° NW 04:52:00 64° NW
Cosmos 1680 Rocket 4.2 04:51:05 25° SSE 04:53:58 51° ESE 04:59:07 10° NNE
MOS 1 Rocket 4.3 04:53:32 10° N 04:56:55 29° WNW 04:56:55 29° WNW
Cosmos 2100 Rocket 4.0 04:56:35 36° SSW 04:59:17 68° W 05:05:39 10° N
Cosmos 1802 Rocket 3.9 04:57:19 29° S 05:00:45 84° W 05:07:05 10° N
Sich 1 4.3 04:56:59 10° NNW 04:59:35 27° WNW 04:59:35 27° WNW
PSLV R/B 3.8 05:02:49 47° ESE 05:02:49 47° ESE 05:05:15 10° ESE
Cosmos 1300 3.9 05:03:53 28° NW 05:03:53 28° NW 05:06:28 10° NNW
CZ-4B R/B 4.3 05:00:29 10° NNE 05:04:45 40° E 05:08:49 11° SSE
Okean O Rocket 3.2 05:00:53 10° NNE 05:04:51 32° E 05:08:47 10° SSE
Cosmos 1980 Rocket 4.3 05:01:37 10° N 05:06:22 27° ENE 05:11:06 10° ESE
CZ-2D R/B 3.3 05:02:15 10° NNW 05:06:30 25° WNW 05:07:04 24° WNW
Tiangong 2 1.0 05:08:15 84° NNE 05:08:15 84° NNE 05:11:24 10° ENE
Shenzhou-11 Module 2.2 05:14:00 58° NW 05:14:12 60° NNW 05:17:17 10° ENE
Cosmos 773 Rocket 4.4 05:12:56 35° WSW 05:14:30 45° WNW 05:19:36 10° N
Cosmos 2278 3.6 05:10:46 10° NNW 05:16:26 81° WSW 05:22:05 10° SSE
Cosmos 1455 2.2 05:16:37 26° S 05:18:36 74° E 05:22:20 10° N
Cosmos 2173 Rocket 4.3 05:17:42 28° SW 05:20:51 50° WNW 05:27:02 10° N
Cosmos 1697 Rocket 3.3 05:15:28 10° NNW 05:21:05 60° ENE 05:26:40 10° SE
Tsikada Rocket 4.3 05:16:02 10° N 05:22:22 72° E 05:28:43 10° SSE
Cosmos 1470 Rocket 3.8 05:20:35 10° NNW 05:24:41 44° W 05:26:15 30° SW
COSMOS 2487 2.6 05:28:16 39° WSW 05:29:12 53° WNW 05:32:42 10° N
MOS 1-B 4.3 05:24:22 10° N 05:30:11 72° WNW 05:34:57 16° SSW
ADEOS II 2.0 05:25:34 10° N 05:30:50 80° WNW 05:35:23 14° SSW
Cosmos 192 4.4 05:29:14 25° SW 05:31:59 61° WNW 05:36:54 10° NNE
Cosmos 1515 Rocket 4.3 05:30:44 29° WSW 05:31:59 35° WNW 05:36:04 10° N
Lacrosse 5 1.8 05:31:49 10° NW 05:36:53 71° SW 05:41:54 10° SSE
Cosmos 2082 Rocket 2.3 05:35:51 21° SW 05:39:36 61° WNW 05:45:11 10° NNE
Cosmos 2228 Rocket 4.3 05:39:48 22° W 05:40:53 24° WNW 05:44:28 10° NNW
Cosmos 2084 3.2 05:40:10 22° SW 05:42:40 84° NW 05:46:34 10° NNE
Cosmos 1869 Rocket 3.8 05:42:23 10° N 05:46:52 74° E 05:51:17 10° SSE
OAO 2 Rocket 3.8 05:46:15 20° SW 05:49:20 44° SSE 05:54:03 10° E
Lacrosse 4 Rocket 3.9 05:48:23 10° SSE 05:51:49 22° ESE 05:55:17 10° NE
CZ-4B R/B 3.1 05:53:44 10° NNE 05:59:12 84° WNW 06:04:33 10° SSW
Timation 2 Rocket 3.9 05:54:51 10° SSW 06:00:49 88° ESE 06:07:01 10° NNE
Cosmos 1869 3.2 05:58:32 10° SSW 06:02:28 70° W 06:06:28 10° N
Cosmos 1892 3.9 06:00:20 10° NW 06:03:21 22° W 06:06:08 11° SW
ATLAS 2AS CENTAUR R/B 3.7 05:55:36 10° NNW 06:03:31 59° NE 06:10:48 10° SE
PSLV R/B 3.9 05:59:30 10° N 06:03:40 47° WNW 06:07:45 10° SSW
Landsat 4 3.6 06:00:13 10° S 06:03:56 74° WSW 06:07:42 10° NNW
Cosmos 1656 4.1 05:58:57 10° NW 06:04:14 40° WSW 06:09:30 10° S
Meteor 2-3 Rocket 4.4 06:00:01 10° NNW 06:05:04 35° W 06:10:10 10° SSW
Cosmos 1408 2.4 06:03:23 10° N 06:07:01 81° W 06:10:36 10° S
Meteor 1-31 Rocket 3.1 06:04:13 10° NNE 06:08:10 72° ESE 06:12:06 10° S
Cosmos 1825 2.1 06:07:14 10° N 06:11:02 78° W 06:14:50 10° S
Cosmos 1371 Rocket 4.0 06:06:02 10° NNW 06:11:16 79° WSW 06:16:32 10° SSE
Cosmos 2322 Rocket 4.1 06:11:45 10° N 06:16:55 35° ENE 06:22:01 10° SE
Cosmos 2233 Rocket 4.1 06:11:20 10° SSW 06:17:21 57° W 06:23:23 10° N
NOSS 3-3 (A) 4.2 06:11:31 10° SSW 06:17:36 79° ESE 06:24:12 10° NE
NOSS 3-3 (C) 4.2 06:11:32 10° SSW 06:17:36 78° ESE 06:24:11 10° NE
GPS 2-04 Rocket1 4.2 06:16:18 10° SSW 06:18:57 21° SSE 06:21:40 10° ESE
Hubble Space Telescope 2.8 06:20:25 10° SW 06:22:43 14° SSW 06:25:00 10° SSE
NOSS 2-1 (C) 3.6 06:19:41 10° SSW 06:23:22 65° ESE 06:27:23 10° NE
NOSS 2-1 (D) 3.6 06:19:47 10° SSW 06:23:28 67° ESE 06:27:29 10° NE
USA 116 4.4 06:19:18 10° SSE 06:24:28 86° ENE 06:29:12 10° NNW
Cosmos 1624 Rocket 4.0 06:21:40 10° NNW 06:26:54 68° WSW 06:32:03 10° S
SL-16 R/B 3.6 06:24:02 10° N 06:29:28 44° ENE 06:34:51 10° SE
USA 234 3.8 06:23:56 10° NE 06:30:24 60° SE 06:36:50 10° SSW
